GW6984 Weather Reports


time (UTC)temp
C
wind
direction
speed
KPH
gust
KPH
rain 1hr
cm
rain 24hr
cm
rain mn
cm
humidity
%
barometer
mb
20260504050743 5 347 3.2 3.2 0.00 0.00 0.00 74 1015.6
20260504050241 5 345 3.2 3.2 0.00 0.00 0.00 74 1015.5
20260504045738 5 16 3.2 3.2 0.00 0.00 0.00 71 1015.7
20260504045233 5 105 0.0 0.0 0.00 0.00 0.00 73 1015.8
20260504044731 5 347 1.6 3.2 0.00 0.00 0.00 73 1015.7
20260504044228 5 347 0.0 1.6 0.00 0.00 0.00 73 1015.6
20260504043725 5 156 1.6 1.6 0.00 0.00 0.00 70 1015.8
20260504043222 5 156 0.0 0.0 0.00 0.00 0.00 71 1015.6
20260504042720 5 157 1.6 3.2 0.00 0.00 0.00 71 1015.7
20260504042216 5 31 1.6 1.6 0.00 0.00 0.00 68 1015.5
20260504041712 5 32 0.0 0.0 0.00 0.00 0.00 69 1015.4
20260504041208 5 32 0.0 0.0 0.00 0.00 0.00 65 1015.5
20260504040705 6 32 0.0 0.0 0.00 0.00 0.00 69 1015.4
20260504040202 6 357 1.6 1.6 0.00 0.00 0.00 65 1015.3
20260504035658 6 355 3.2 3.2 0.00 0.00 0.00 65 1015.4
20260504035155 6 358 3.2 3.2 0.00 0.00 0.00 65 1015.3
20260504034653 6 0 3.2 3.2 0.00 0.00 0.00 66 1015.3
20260504034149 6 11 0.0 0.0 0.00 0.00 0.00 68 1015.4
20260504033647 5 11 0.0 0.0 0.00 0.00 0.00 69 1015.4
20260504033144 6 11 0.0 0.0 0.00 0.00 0.00 69 1015.4
20260504032641 6 11 0.0 0.0 0.00 0.00 0.00 68 1015.0
20260504032138 6 11 0.0 0.0 0.00 0.00 0.00 68 1015.2
20260504031635 6 11 0.0 0.0 0.00 0.00 0.00 67 1015.0
20260504031132 6 11 0.0 0.0 0.00 0.00 0.00 65 1015.0
20260504030628 6 11 0.0 0.0 0.00 0.00 0.00 65 1015.0
20260504030125 6 11 0.0 0.0 0.00 0.00 0.00 65 1015.1
20260504025622 6 12 0.0 0.0 0.00 0.00 0.00 62 1015.2
20260504025119 6 12 0.0 0.0 0.00 0.00 0.00 62 1015.0
20260504024616 7 12 0.0 0.0 0.00 0.00 0.00 60 1015.0
20260504024113 7 12 0.0 0.0 0.00 0.00 0.00 60 1014.9
20260504023609 7 11 1.6 1.6 0.00 0.00 0.00 59 1014.9
20260504023105 7 11 1.6 1.6 0.00 0.00 0.00 59 1014.9
20260504022602 7 11 1.6 1.6 0.00 0.00 0.00 58 1015.0
20260504022058 7 12 0.0 0.0 0.00 0.00 0.00 58 1015.0
20260504021555 7 12 1.6 1.6 0.00 0.00 0.00 56 1015.0
20260504021052 7 14 1.6 3.2 0.00 0.00 0.00 56 1014.8
20260504020549 7 19 1.6 3.2 0.00 0.00 0.00 56 1015.1
20260504020045 8 27 1.6 1.6 0.00 0.00 0.00 56 1015.1
20260504015542 8 29 0.0 0.0 0.00 0.00 0.00 54 1015.1
20260504015038 8 29 0.0 1.6 0.00 0.00 0.00 53 1015.1
20260504014534 8 29 0.0 1.6 0.00 0.00 0.00 54 1014.9
20260504014031 8 29 1.6 1.6 0.00 0.00 0.00 52 1015.0
20260504013529 8 30 1.6 1.6 0.00 0.00 0.00 51 1014.9
20260504013026 8 30 1.6 1.6 0.00 0.00 0.00 51 1014.9
20260504012524 8 39 1.6 1.6 0.00 0.00 0.00 52 1014.8
20260504012021 8 78 1.6 1.6 0.00 0.00 0.00 51 1014.8
20260504011518 9 149 1.6 1.6 0.00 0.00 0.00 50 1014.8
20260504011014 10 149 1.6 1.6 0.00 0.00 0.00 48 1014.7
20260504010509 10 149 0.0 0.0 0.00 0.00 0.00 47 1014.8
20260504010005 10 149 1.6 1.6 0.00 0.00 0.00 45 1014.5
20260504005502 10 149 1.6 1.6 0.00 0.00 0.00 45 1014.5
20260504005000 10 148 1.6 1.6 0.00 0.00 0.00 48 1014.4
20260504004458 10 147 0.0 1.6 0.00 0.00 0.00 48 1014.5
20260504003954 10 147 0.0 1.6 0.00 0.00 0.00 46 1014.5
20260504003450 11 146 0.0 0.0 0.00 0.00 0.00 43 1014.3
20260504002947 11 146 0.0 0.0 0.00 0.00 0.00 40 1014.3
20260504002444 11 146 0.0 0.0 0.00 0.00 0.00 39 1014.3
20260504001942 11 147 0.0 0.0 0.00 0.00 0.00 39 1014.2
20260504001439 11 146 0.0 0.0 0.00 0.00 0.00 40 1014.4
20260504000936 12 146 0.0 0.0 0.00 0.00 0.00 39 1014.2
20260504000433 12 146 0.0 0.0 0.00 0.00 0.00 39 1014.2
20260503235930 12 146 0.0 0.0 0.00 0.00 0.00 37 1014.1
20260503235428 12 146 0.0 0.0 0.00 0.00 0.00 36 1014.0
20260503234925 12 122 0.0 1.6 0.00 0.00 0.00 37 1014.0
20260503234422 13 31 0.0 0.0 0.00 0.00 0.00 37 1013.9
20260503233920 13 31 0.0 0.0 0.00 0.00 0.00 36 1013.7
20260503233417 13 32 1.6 1.6 0.00 0.00 0.00 35 1013.7
20260503232913 13 33 0.0 1.6 0.00 0.00 0.00 35 1013.7
20260503232410 14 47 0.0 0.0 0.00 0.00 0.00 34 1013.7
20260503231908 14 23 0.0 3.2 0.00 0.00 0.00 32 1013.6
20260503231405 14 41 3.2 1.6 0.00 0.00 0.00 33 1013.7
20260503230901 14 244 1.6 4.8 0.00 0.00 0.00 32 1013.8
20260503230358 14 21 0.0 3.2 0.00 0.00 0.00 31 1013.6
20260503225856 15 356 1.6 4.8 0.00 0.00 0.00 32 1013.7
20260503225351 15 8 1.6 4.8 0.00 0.00 0.00 31 1013.7
20260503224848 15 331 3.2 11.3 0.00 0.00 0.00 30 1013.9
20260503224345 15 9 3.2 6.4 0.00 0.00 0.00 31 1013.8
20260503223843 15 3 0.0 1.6 0.00 0.00 0.00 33 1013.8
20260503223340 15 229 1.6 9.7 0.00 0.00 0.00 32 1013.6
20260503222836 15 292 8.0 9.7 0.00 0.00 0.00 29 1013.7
20260503222335 15 272 8.0 11.3 0.00 0.00 0.00 29 1013.5
20260503221832 15 356 4.8 9.7 0.00 0.00 0.00 30 1013.6
20260503221331 15 9 4.8 6.4 0.00 0.00 0.00 31 1013.7
20260503220826 15 329 4.8 4.8 0.00 0.00 0.00 30 1013.8
20260503220323 15 12 9.7 17.7 0.00 0.00 0.00 29 1013.7
20260503215820 15 229 9.7 14.5 0.00 0.00 0.00 29 1013.6
20260503215317 15 352 4.8 4.8 0.00 0.00 0.00 33 1013.6
20260503214815 16 330 6.4 14.5 0.00 0.00 0.00 28 1013.6
20260503214312 16 316 4.8 9.7 0.00 0.00 0.00 29 1013.7
20260503213810 16 352 6.4 12.9 0.00 0.00 0.00 29 1013.8
20260503213307 16 187 6.4 9.7 0.00 0.00 0.00 29 1013.9
20260503212804 16 156 4.8 9.7 0.00 0.00 0.00 30 1013.7
20260503212302 16 100 4.8 6.4 0.00 0.00 0.00 27 1013.5
20260503211759 16 32 0.0 4.8 0.00 0.00 0.00 29 1013.7
20260503211255 16 350 3.2 6.4 0.00 0.00 0.00 27 1013.5
20260503210755 16 71 3.2 4.8 0.00 0.00 0.00 28 1013.7
20260503210253 16 172 0.0 3.2 0.00 0.00 0.00 29 1013.6
20260503205748 16 56 4.8 9.7 0.00 0.00 0.00 28 1013.6
20260503205245 16 337 4.8 6.4 0.00 0.00 0.00 29 1013.8
20260503204741 16 161 3.2 9.7 0.00 0.00 0.00 28 1013.7
20260503204239 16 168 3.2 6.4 0.00 0.00 0.00 28 1013.6
20260503203736 16 335 9.7 14.5 0.00 0.00 0.00 26 1013.8
20260503203234 15 244 4.8 11.3 0.00 0.00 0.00 30 1013.8
20260503202731 16 347 8.0 16.1 0.00 0.00 0.00 29 1013.9
20260503202228 16 346 6.4 11.3 0.00 0.00 0.00 30 1014.0
20260503201726 16 158 4.8 11.3 0.00 0.00 0.00 30 1014.1
20260503201223 16 244 4.8 14.5 0.00 0.00 0.00 28 1013.8
20260503200719 16 344 6.4 11.3 0.00 0.00 0.00 31 1014.3
20260503200216 15 271 3.2 4.8 0.00 0.00 0.00 32 1014.0
20260503195713 15 268 3.2 6.4 0.00 0.00 0.00 33 1014.0
20260503195210 15 319 9.7 14.5 0.00 0.00 0.00 31 1014.2
20260503194707 15 270 4.8 9.7 0.00 0.00 0.00 31 1014.2
20260503194203 15 208 3.2 6.4 0.00 0.00 0.00 33 1014.4
20260503193659 15 301 6.4 9.7 0.00 0.00 0.00 34 1014.5
20260503193155 16 358 6.4 6.4 0.00 0.00 0.00 32 1014.5
20260503192651 15 275 9.7 12.9 0.00 0.00 0.00 32 1014.6
20260503192146 15 220 3.2 11.3 0.00 0.00 0.00 35 1014.6
20260503191643 15 331 3.2 6.4 0.00 0.00 0.00 32 1014.6
20260503191141 15 5 3.2 6.4 0.00 0.00 0.00 35 1014.5
20260503190637 15 259 4.8 12.9 0.00 0.00 0.00 30 1014.6
20260503190134 15 205 4.8 16.1 0.00 0.00 0.00 30 1014.7
20260503185631 15 236 3.2 14.5 0.00 0.00 0.00 34 1014.7
20260503185126 14 317 4.8 12.9 0.00 0.00 0.00 34 1015.0
20260503184621 15 335 4.8 11.3 0.00 0.00 0.00 32 1014.8
20260503184118 15 319 9.7 20.9 0.00 0.00 0.00 31 1014.9
20260503183615 15 160 4.8 6.4 0.00 0.00 0.00 31 1015.0
20260503183112 15 297 6.4 9.7 0.00 0.00 0.00 35 1015.2
20260503182610 13 299 9.7 12.9 0.00 0.00 0.00 34 1015.1
20260503182108 15 149 1.6 9.7 0.00 0.00 0.00 31 1015.1
20260503181605 15 221 3.2 14.5 0.00 0.00 0.00 35 1015.0
20260503181101 14 217 3.2 9.7 0.00 0.00 0.00 33 1015.2
20260503180559 15 333 6.4 14.5 0.00 0.00 0.00 34 1015.2
20260503180056 14 193 8.0 12.9 0.00 0.00 0.00 32 1015.2
20260503175553 13 172 9.7 14.5 0.00 0.00 0.00 33 1015.3
20260503175050 14 142 3.2 3.2 0.00 0.00 0.00 33 1015.3
20260503174547 13 321 11.3 17.7 0.00 0.00 0.00 31 1015.2
20260503174044 13 2 8.0 12.9 0.00 0.00 0.00 34 1015.1
20260503173539 13 51 9.7 17.7 0.00 0.00 0.00 32 1015.2
20260503173035 13 349 4.8 14.5 0.00 0.00 0.00 33 1015.3
20260503172533 13 117 4.8 11.3 0.00 0.00 0.00 31 1015.4
20260503172030 13 277 8.0 14.5 0.00 0.00 0.00 30 1015.7
20260503171526 12 184 4.8 12.9 0.00 0.00 0.00 35 1015.7
20260503171024 13 200 9.7 17.7 0.00 0.00 0.00 33 1015.6
20260503170520 12 335 11.3 12.9 0.00 0.00 0.00 36 1015.5
20260503150912 11 250 4.8 6.4 0.00 0.00 0.00 39 1015.8
20260503150409 10 350 6.4 14.5 0.00 0.00 0.00 38 1016.1
20260503131302 8 325 11.3 20.9 0.00 0.00 0.00 46 1016.3
20260503130759 8 327 9.7 17.7 0.00 0.00 0.00 48 1016.1
20260503130257 8 336 6.4 22.5 0.00 0.00 0.00 48 1016.1
20260503110650 5 309 3.2 11.3 0.00 0.00 0.00 63 1015.2
20260503110148 5 51 3.2 9.7 0.00 0.00 0.00 65 1015.2
20260503100114 3 331 3.2 4.8 0.00 0.00 0.00 67 1014.3
20260503081504 5 339 3.2 4.8 0.00 0.00 0.00 67 1013.4
20260503081001 5 343 3.2 4.8 0.00 0.00 0.00 66 1013.4
20260503080457 5 325 3.2 6.4 0.00 0.00 0.00 65 1013.3
20260503072933 5 272 3.2 9.7 0.00 0.00 0.00 63 1013.1
20260503072431 5 333 4.8 6.4 0.00 0.00 0.00 63 1013.0
20260503071928 5 203 4.8 6.4 0.00 0.00 0.00 63 1012.9
20260503071425 5 243 1.6 6.4 0.00 0.00 0.00 63 1013.0
20260503070921 5 350 4.8 4.8 0.00 0.00 0.00 63 1012.8
20260503070418 5 323 3.2 4.8 0.00 0.00 0.00 64 1012.8
20260503054832 6 337 6.4 6.4 0.00 0.00 0.00 64 1013.0
20260503054327 6 295 3.2 6.4 0.00 0.00 0.00 64 1013.1
20260503053825 6 304 3.2 9.7 0.00 0.00 0.00 64 1013.1